Location: Arcizac
(43.0933°N, 0.0112°E)
Time: 09:24:28
(UTC+00:00)

Cosmos 2263 - Pass Details

Date: 14 December 2019
Orbit: 829 x 867 km, 70.9° (Epoch: 28 January)

Event Time Altitude Azimuth Distance (km) Brightness Sun altitude
Rises 19:06:47 0° 333° (NNW) 3,458 7.6 -28.5°
Reaches altitude 10° 19:09:15 10° 332° (NNW) 2,518 6.9 -29.0°
Maximum altitude 19:15:02 74° 248° (WSW) 903 4.3 -30.0°
Enters shadow 19:15:09 74° 237° (WSW) 904 4.3 -30.0°
